Погода в Болниси

Погода в Болниси : погода сейчас, прогноз погоды и архив. Всё, что Вы хотите узнать о погоде в Болниси!

Поиск расширенной информации на нашем сайте:

Другие новости

Новости СМИ2

Главная страница сайта

Новости сайта

02.10.2013

Напоминаем, что на нашем новом сайте вы можете получить высокодетализированные прогнозы погоды по пунктам России, СНГ и мира (включающие важные для авиации метеовеличины, такие как направление и скорость ветра, видимость, явления погоды, количество и форма облачности, нижняя и верхняя граница облачности), а также ознакомиться с разнообразными материалами по авиационной метеорологии и подборкой полезных ссылок на эту тему.

Сайт Метеоцентр.Азия посвящён разработке технологий оптимизации авиаметеорологического обслуживания, включая проектирование и перспективное создание нескольких автоматизированных авиаметеорологических систем:
- система выпуска высокодетальных прогностических карт явлений погоды для нижнего воздушного пространства по России и ближнему зарубежью;
- система верификации прогнозов TAF (выпускаемых синоптиками официальных АМСГ РФ и ближнего зарубежья) и AUTOTAF (выпускаемых сайтом Метеоцентр.Азия) - выявление ошибок, онлайн-сопоставление с фактической погодой METAR, автоматическое внесение коррективов в прогнозы при резком отклонении фактической погоды от прогноза, подсчёт оправдываемости прогнозов по элементам и в целом;
- система обработки, анализа и отображения авиаметеорологической информации для применения провайдерами метеорологической информации.

Рекомендуем: Свадьба на Бали и других островах

Погода в Болниси - сегодня

Время (UTC), дата Ветер
(°,м/с) 
Видим.   Явления Облачность Т
(°С)
Тd
(°С)
f(%) Тe
(°С)
Pmin
(гПа)
dP
(гПа)
Po
(мм)
O2
(г/м3)
Тmin Tmax R s Состояние
почвы
21 21.03.17 270 (З) н/о    ясно 
+3.5 +9.1 100 +5  1016.4  0.3  714  282           
00 22.03.17 тихо ()   н/о    ясно 
-0.4 -8.6 54 -0  1018.4  714  289           
03 22.03.17 тихо ()   20000 м    1/0 1000 м средняя 
[Ac trans]
-1.4 -8.3 59 -1  1019.3  0.6  715  290           
06 22.03.17 270 (З) 20000 м    3/0 1000 м средняя 
[Ac trans]
+7.7 -3.8 44 +9  1017.4  0.4  715  281  -1.8         
09 22.03.17 050 (СВ) 20000 м    5/5 1000 м 
[Cu med, cong]
+10.3 -3.3 38 +10  1016.5  -0.2  715  278           
12 22.03.17 090 (В) 20000 м    8/5 1000 м средняя, верхняя 
[Cu med, cong|Ac trans|Ci fib]
+12.5 -3 34 +13  1014.1  -1.9  714  275           
15 22.03.17 050 (СВ) 20000 м    8/3 1000 м средняя 
[Cu med, cong|Ac trans]
+10.2 -4.7 35 +11  1015.2  0.5  714  278    +13.6       
18 22.03.17 050 (СВ) н/о    3/0 1000 м средняя 
[Ac trans]
+6.7 -6.3 39 +8  1018  1.9  715  282    +13.6       
21 22.03.17 090 (В) н/о    1/0 1000 м средняя 
[Ac trans]
+2.6 -6.8 50 +3  1020.4  1.3  716  287           
00 23.03.17 090 (В) н/о    ясно 
+0.3 -6.3 61 +1  1021.3  0.3  717  289           
03 23.03.17 270 (З) 20000 м    1/0 1000 м средняя 
[Ac trans]
-1.2 -7.1 64 -1  1023.2  1.5  718  291           
06 23.03.17 270 (З) 20000 м    1/0 средняя 
[Ac trans]
+8.8 -2.7 44 +10  1020.4  -0.4  717  280  -1.4         
09 23.03.17 140 (ЮВ) 20000 м    1/0 средняя 
[Ac trans]
+11.4 -3.6 35 +13  1018.6  -1.1  717  277           
12 23.03.17 090 (В) 20000 м    1/0 средняя 
[Ac trans]
+13.3 -2.5 33 +15  1017.2  -0.9  716  275           
15 23.03.17 140 (ЮВ) 20000 м    ясно 
+11.7 -3.8 34 +13  1017.9  0.3  716  277    +15.1       
18 23.03.17 тихо ()   н/о    ясно 
+6.6 -5.6 41 +7  1021.9  2.6  718  283    +15.1       
21 23.03.17 тихо ()   н/о    ясно 
+4.3 -6.7 45 +4  1023.6  1.1  719  286           
00 24.03.17 тихо ()   н/о    ясно 
+1 -6.6 57 +1  1025.1  0.1  719  289           
03 24.03.17 тихо ()   20000 м    1/0 средняя 
[Ac trans]
-0.6 -5.9 67 -1  1026.8  1.2  720  291           
06 24.03.17 270 (З) 20000 м    1/0 средняя 
[Ac trans]
+8 -1.4 51 +9  1025.6  0.8  721  282  -0.8         
09 24.03.17 090 (В) 20000 м    3/3 1000 м 
[Cu med, cong]
+11.6 +0.4 46 +12  1024.4  -0.4  721  278           
12 24.03.17 090 (В) 20000 м    1/1 1000 м 
[Cu med, cong]
+12.7 +0.4 43 +14  1022.4  -1.5  720  277           
15 24.03.17 070 (В) 20000 м    1/0 средняя 
[Ac trans]
+11.4 -0.2 45 +13  1022.4  -0.3  719  278    +13.8       
18 24.03.17 090 (В) н/о    5/0 1000 м средняя, верхняя 
[Ac trans|Ci fib]
+7.3 +1.9 69 +7  1025.7  2.2  721  283    +13.8       
21 24.03.17 070 (В) н/о    10/10 600 м 
[Sc]
+6.3 +2.7 78 +7  1026.2  0.2  721  284           
Время (UTC), дата Ветер
(°,м/с) 
Видим.   Явления Облачность Т
(°С)
Тd
(°С)
f(%) Тe
(°С)
Pmin
(гПа)
dP
(гПа)
Po
(мм)
O2
(г/м3)
Тmin Tmax R s Состояние
почвы

Для получения пояснительной информации подведите курсор к названию столбца.

ПОГОДА в Болниси - архив

Всё, что Вы хотите узнать о погоде в Болниси - удобно и подробно!

Выберите нужную дату (начиная с 1 января 2015* года) и нажмите кнопку "Найти".
Будут отображены архивные сводки погоды по пункту Болниси, начиная с указанной даты.


Отображать данные в формате CSV (для использования в таблицах Excel)


Внимание! Наш архив погоды предназначен исключительно для личного некоммерческого использования в познавательных целях. Если Вам необходимы официальные справки о состоянии погоды (для производственных, юридических, коммерческих и т.п. целей), обращайтесь в органы Росгидромета.

*Примечание: данная дата относится к архиву по метеостанциям СССР (Россия, СНГ, Балтия).
Архив по метеостанциям Зарубежной Европы и Азии (кроме Китая) хранится 10 дней, по другим регионам земного шара (Китай, Африка, Америка, Австралия, Океания) - 1 день.

Болниси - район местоположения метеостанции


Название, широта, долгота, высота метеостанции:
Болниси 41.4°ш. 44.6°д. 534 м над ур. моря [Грузия]

Дополнительная информация

В oтличие oт бoльшинства пoгoдных сайтoв мы публикуем пoдрoбную метеoинфoрмацию в детальнoм прoфессиoнальнoм фoрмате.

Характеристики температуры и влажнoсти вoздуха измеряются на высoте 2 м в тени вдали oт зданий и деревьев.
Скoрoсть ветра измеряется на высoте 10 м (на урoвне рoста челoвека скoрoсть ветра ниже в 1.5-2 раза). Если метеoстанция нахoдится в гoрoде или в лесу, тo скoрoсть ветра занижена на 2-4 м/с пo сравнению с oткрытым местoм. Скoрoсть ветра над акватoриями крупных рек и oзёр, а также на вершинах хoлмoв на 2-5 м/с выше, чем в oбычных услoвиях.
Атмoсфернoе давление в разных тoчках местнoсти мoжет значительнo oтличаться oт давления на метеoстанции, в зависимoсти oт услoвий рельефа (при пoдъёме на 10 м давление пoнижается примернo на 1 мм рт.ст.).